Weather History for Paducah, KY

Change the Weather History Date:

Thursday, October 24, 2013

  Actual Average Record
Temperature  
Mean Temperature 42 °F 56 °F  
Max Temperature 53 °F 68 °F 89 °F (1939)
Min Temperature 31 °F 45 °F 22 °F (1981)
Degree Days  
Heating Degree Days 23 9  
Month to date heating degree days 136 156  
Since 1 July heating degree days 141 195  
Cooling Degree Days 0 1  
Month to date cooling degree days 63 35  
Year to date cooling degree days 1471 1535  
Moisture  
Dew Point 34 °F    
Average Humidity 59    
Maximum Humidity 82    
Minimum Humidity 35    
Precipitation  
Precipitation 0.00 in 0.12 in 1.91 in (1986)
Month to date precipitation 4.92 3.11  
Year to date precipitation 48.79 39.34  
Snow  
Snow 0.00 in 0.10 in 0.00 in (2002)
Month to date snowfall 0.0 0.1  
Since 1 July snowfall 0.0 0.1  
Since 1 September snowfall 0.0 0.1  
Snow Depth 0.00 in    
Sea Level Pressure  
Sea Level Pressure 30.24 in    
Wind  
Wind Speed 5 mph (NNW)    
Max Wind Speed 21 mph    
Max Gust Speed 25 mph    
Visibility 10 miles    
Events      
T = Trace of Precipitation, MM = Missing Value Source: NWS Daily Summary

Daily Weather History Graph

Daily Weather History Graph

Search for Another Location

Airport:

Trip Planner

Search our weather history database for the weather conditions in past years. The results will help you decide how hot, cold, wet, or windy it might be!

Date:

Astronomy

Oct. 24, 2013 Rise Set
Actual Time 7:11 AM CDT 6:06 PM CDT
Civil Twilight 6:45 AM CDT 6:32 PM CDT
Nautical Twilight 6:14 AM CDT 7:03 PM CDT
Astronomical Twilight 5:44 AM CDT 7:33 PM CDT
Moon 10:33 PM CDT (10/24) 12:09 PM CDT (10/24)
Length of Visible Light 11h 47m
Length of Day
10h 54m
Waning Gibbous, 71% of the Moon is Illuminated
Oct 24
Waning Gibbous
Oct 26
Last Quarter
Nov 3
New
Nov 9
First Quarter
Nov 17
Full

Hourly Weather History & Observations

Time (CDT) Temp. Windchill Dew Point Humidity Pressure Visibility Wind Dir Wind Speed Gust Speed Precip Events Conditions
12:53 AM 46.9 °F - 37.9 °F 71% 30.13 in 10.0 mi Calm Calm - N/A   Overcast
1:53 AM 46.9 °F - 37.9 °F 71% 30.13 in 10.0 mi Calm Calm - N/A   Overcast
2:53 AM 46.0 °F - 39.9 °F 79% 30.13 in 10.0 mi Calm Calm - N/A   Overcast
3:53 AM 46.0 °F - 37.9 °F 73% 30.13 in 10.0 mi Calm Calm - N/A   Overcast
4:53 AM 45.0 °F 43.5 °F 37.9 °F 76% 30.15 in 10.0 mi NNE 3.5 mph - N/A   Overcast
5:53 AM 44.1 °F - 37.0 °F 76% 30.16 in 10.0 mi Calm Calm - N/A   Overcast
6:53 AM 43.0 °F - 37.0 °F 80% 30.17 in 10.0 mi Calm Calm - N/A   Overcast
7:53 AM 42.1 °F - 37.9 °F 85% 30.19 in 10.0 mi Calm Calm - N/A   Mostly Cloudy
8:53 AM 46.9 °F - 37.9 °F 71% 30.22 in 10.0 mi NNW 5.8 mph - N/A   Partly Cloudy
9:53 AM 46.9 °F - 37.9 °F 71% 30.24 in 10.0 mi NNW 9.2 mph - N/A   Overcast
10:53 AM 46.9 °F - 37.0 °F 68% 30.25 in 10.0 mi WNW 8.1 mph - N/A   Overcast
11:05 AM 48.2 °F - 37.4 °F 66% 30.25 in 10.0 mi NW 5.8 mph - N/A   Overcast
11:46 AM 48.2 °F - 37.4 °F 66% 30.25 in 10.0 mi NW 10.4 mph - N/A   Overcast
11:53 AM 48.9 °F - 37.0 °F 64% 30.25 in 10.0 mi NNW 10.4 mph - N/A   Overcast
12:26 PM 48.2 °F - 35.6 °F 62% 30.25 in 10.0 mi NNW 8.1 mph 17.3 mph N/A   Mostly Cloudy
12:37 PM 48.2 °F - 35.6 °F 62% 30.25 in 10.0 mi NNW 11.5 mph 19.6 mph N/A   Unknown
12:44 PM 51.8 °F - 35.6 °F 54% 30.25 in 10.0 mi North 13.8 mph 19.6 mph N/A   Mostly Cloudy
12:53 PM 51.1 °F - 36.0 °F 56% 30.25 in - NNW 11.5 mph 19.6 mph N/A   Mostly Cloudy
1:31 PM 51.8 °F - 30.2 °F 44% 30.23 in 10.0 mi NW 13.8 mph 20.7 mph N/A   Scattered Clouds
1:53 PM 52.0 °F - 30.0 °F 43% 30.24 in 10.0 mi NW 10.4 mph 23.0 mph N/A   Partly Cloudy
2:53 PM 53.1 °F - 28.0 °F 38% 30.25 in 10.0 mi North 11.5 mph 19.6 mph N/A   Partly Cloudy
3:53 PM 52.0 °F - 26.1 °F 37% 30.27 in 10.0 mi NW 9.2 mph 19.6 mph N/A   Clear
4:53 PM 51.1 °F - 24.1 °F 35% 30.28 in 10.0 mi NNW 11.5 mph 19.6 mph N/A   Clear
5:53 PM 46.9 °F - 25.0 °F 42% 30.29 in 10.0 mi NNW 5.8 mph - N/A   Clear
6:53 PM 44.1 °F - 27.0 °F 51% 30.31 in 10.0 mi Calm Calm - N/A   Clear
7:53 PM 41.0 °F - 28.0 °F 60% 30.33 in 10.0 mi Calm Calm - N/A   Clear
8:53 PM 39.0 °F 34.8 °F 28.9 °F 67% 30.35 in 10.0 mi North 5.8 mph - N/A   Clear
9:53 PM 39.0 °F 34.8 °F 28.0 °F 65% 30.38 in 10.0 mi North 5.8 mph - N/A   Clear
10:53 PM 37.9 °F 34.4 °F 27.0 °F 65% 30.40 in 10.0 mi NNE 4.6 mph - N/A   Clear
11:53 PM 34.0 °F - 28.0 °F 79% 30.41 in 10.0 mi Calm Calm - N/A   Clear